Meteo pe oră la Ababuj

Astăzi, 13 Iunie, Duminică

Timp Temperatura Precipitaţii Vânt Presiune Umiditate
00:00 +15°C° 0 mm 2 m/s 653 mmHg 58%
01:00 +15°C° 0 mm 2 m/s 652 mmHg 57%
02:00 +15°C° 0 mm 1 m/s 652 mmHg 56%
03:00 +14°C° 0 mm 1 m/s 652 mmHg 55%
04:00 +15°C° 0 mm 1 m/s 652 mmHg 53%
05:00 +16°C° 0 mm 1 m/s 653 mmHg 51%
06:00 +16°C° 0 mm 0 m/s 653 mmHg 50%
07:00 +20°C° 0 mm 1 m/s 654 mmHg 44%
08:00 +21°C° 0 mm 2 m/s 654 mmHg 38%
09:00 +23°C° 0 mm 2 m/s 654 mmHg 32%
10:00 +24°C° 0 mm 3 m/s 655 mmHg 30%
11:00 +25°C° 0 mm 3 m/s 655 mmHg 28%
12:00 +26°C° 0 mm 3 m/s 655 mmHg 27%
13:00 +27°C° 0 mm 3 m/s 655 mmHg 27%
14:00 +27°C° 0 mm 4 m/s 654 mmHg 27%
15:00 +27°C° 0 mm 4 m/s 654 mmHg 26%
16:00 +27°C° 0 mm 4 m/s 654 mmHg 29%
17:00 +26°C° 0 mm 4 m/s 654 mmHg 31%
18:00 +25°C° 0 mm 4 m/s 654 mmHg 33%
19:00 +22°C° 0 mm 3 m/s 653 mmHg 37%
20:00 +20°C° 0 mm 3 m/s 653 mmHg 41%
21:00 +18°C° 0 mm 2 m/s 653 mmHg 45%
22:00 +18°C° 0 mm 2 m/s 653 mmHg 44%
23:00 +18°C° 0 mm 2 m/s 652 mmHg 43%

Mâine, 14 Iunie, Luni

Timp Temperatura Precipitaţii Vânt Presiune Umiditate
00:00 +17°C° 0 mm 2 m/s 652 mmHg 42%
01:00 +17°C° 0 mm 2 m/s 652 mmHg 40%
02:00 +17°C° 0 mm 2 m/s 652 mmHg 39%
03:00 +16°C° 0 mm 1 m/s 651 mmHg 37%
04:00 +18°C° 0 mm 1 m/s 652 mmHg 38%
05:00 +19°C° 0 mm 1 m/s 652 mmHg 38%
06:00 +20°C° 0 mm 1 m/s 652 mmHg 39%
07:00 +22°C° 0 mm 1 m/s 653 mmHg 34%
08:00 +24°C° 0 mm 1 m/s 653 mmHg 29%
09:00 +25°C° 0 mm 1 m/s 654 mmHg 25%
10:00 +26°C° 0 mm 2 m/s 654 mmHg 24%
11:00 +28°C° 0 mm 3 m/s 654 mmHg 23%
12:00 +29°C° 0 mm 3 m/s 654 mmHg 22%
13:00 +29°C° 0 mm 3 m/s 654 mmHg 22%
14:00 +29°C° 0 mm 3 m/s 654 mmHg 22%
15:00 +29°C° 0 mm 3 m/s 653 mmHg 22%
16:00 +28°C° 0 mm 3 m/s 653 mmHg 26%
17:00 +27°C° 0 mm 3 m/s 653 mmHg 30%
18:00 +26°C° 0 mm 3 m/s 652 mmHg 34%
19:00 +24°C° 0 mm 3 m/s 652 mmHg 38%
20:00 +21°C° 0 mm 2 m/s 652 mmHg 41%
21:00 +20°C° 0 mm 2 m/s 652 mmHg 45%
22:00 +20°C° 0 mm 1 m/s 652 mmHg 47%
23:00 +19°C° 0 mm 1 m/s 651 mmHg 49%

Poimâine, 15 Iunie, Marţi

Timp Temperatura Precipitaţii Vânt Presiune Umiditate
00:00 +19°C° 0 mm 1 m/s 651 mmHg 50%
01:00 +18°C° 0 mm 1 m/s 651 mmHg 52%
02:00 +18°C° 0 mm 1 m/s 651 mmHg 54%
03:00 +18°C° 0 mm 1 m/s 650 mmHg 56%
04:00 +18°C° 0 mm 1 m/s 651 mmHg 55%
05:00 +17°C° 0 mm 0 m/s 651 mmHg 54%
06:00 +18°C° 0 mm 0 m/s 652 mmHg 53%
07:00 +22°C° 0 mm 1 m/s 652 mmHg 46%
08:00 +24°C° 0 mm 1 m/s 652 mmHg 39%
09:00 +26°C° 0 mm 1 m/s 653 mmHg 33%
10:00 +27°C° 0 mm 3 m/s 653 mmHg 30%
11:00 +28°C° 0 mm 4 m/s 653 mmHg 28%
12:00 +29°C° 0 mm 5 m/s 653 mmHg 25%
13:00 +29°C° 0 mm 5 m/s 653 mmHg 25%
14:00 +29°C° 0 mm 5 m/s 652 mmHg 25%
15:00 +29°C° 0 mm 6 m/s 652 mmHg 25%
16:00 +28°C° 0 mm 6 m/s 652 mmHg 28%
17:00 +26°C° 0 mm 6 m/s 651 mmHg 31%
18:00 +24°C° 0 mm 6 m/s 651 mmHg 34%
19:00 +22°C° 0 mm 5 m/s 651 mmHg 39%
20:00 +20°C° 0 mm 4 m/s 650 mmHg 44%
21:00 +19°C° 0 mm 3 m/s 650 mmHg 48%
22:00 +18°C° 0.1 mm 3 m/s 650 mmHg 51%
23:00 +18°C° 0.1 mm 3 m/s 650 mmHg 55%

16 Iunie, Miercuri

Timp Temperatura Precipitaţii Vânt Presiune Umiditate
00:00 +17°C° 0.1 mm 3 m/s 650 mmHg 58%
01:00 +17°C° 0 mm 3 m/s 649 mmHg 57%
02:00 +17°C° 0 mm 2 m/s 649 mmHg 57%
03:00 +16°C° 0 mm 2 m/s 649 mmHg 56%
04:00 +17°C° 0 mm 2 m/s 649 mmHg 54%
05:00 +18°C° 0 mm 2 m/s 649 mmHg 53%
06:00 +19°C° 0 mm 1 m/s 649 mmHg 51%
07:00 +20°C° 0 mm 3 m/s 649 mmHg 46%
08:00 +22°C° 0 mm 4 m/s 650 mmHg 40%
09:00 +23°C° 0 mm 5 m/s 651 mmHg 35%
10:00 +22°C° 0.1 mm 5 m/s 650 mmHg 39%
11:00 +22°C° 0.1 mm 5 m/s 650 mmHg 43%
12:00 +21°C° 0.1 mm 5 m/s 650 mmHg 48%
13:00 +23°C° 0 mm 5 m/s 650 mmHg 43%
14:00 +25°C° 0 mm 5 m/s 650 mmHg 38%
15:00 +27°C° 0 mm 4 m/s 649 mmHg 33%
16:00 +26°C° 0 mm 6 m/s 649 mmHg 38%
17:00 +23°C° 0 mm 7 m/s 648 mmHg 42%
18:00 +22°C° 0 mm 9 m/s 648 mmHg 47%
19:00 +20°C° 0 mm 7 m/s 648 mmHg 51%
20:00 +19°C° 0 mm 5 m/s 648 mmHg 54%
21:00 +18°C° 0 mm 3 m/s 647 mmHg 58%
22:00 +18°C° 0 mm 2 m/s 647 mmHg 59%
23:00 +17°C° 0 mm 2 m/s 647 mmHg 59%

17 Iunie, Joi

Timp Temperatura Precipitaţii Vânt Presiune Umiditate
00:00 +17°C° 0 mm 2 m/s 647 mmHg 60%
01:00 +17°C° 0.3 mm 2 m/s 647 mmHg 64%
02:00 +16°C° 0.3 mm 3 m/s 646 mmHg 69%
03:00 +14°C° 0.3 mm 3 m/s 646 mmHg 73%
04:00 +13°C° 2.7 mm 3 m/s 646 mmHg 78%
05:00 +12°C° 2.7 mm 3 m/s 645 mmHg 84%
06:00 +12°C° 2.7 mm 2 m/s 645 mmHg 89%
07:00 +12°C° 5.9 mm 2 m/s 645 mmHg 89%
08:00 +11°C° 5.9 mm 3 m/s 645 mmHg 89%
09:00 +11°C° 5.9 mm 3 m/s 645 mmHg 90%
10:00 +12°C° 0.2 mm 3 m/s 645 mmHg 86%
11:00 +12°C° 0.2 mm 3 m/s 645 mmHg 82%
12:00 +12°C° 0.2 mm 3 m/s 645 mmHg 78%
13:00 +16°C° 0 mm 3 m/s 646 mmHg 69%
14:00 +18°C° 0 mm 4 m/s 646 mmHg 61%
15:00 +20°C° 0 mm 4 m/s 647 mmHg 52%
16:00 +20°C° 0 mm 5 m/s 647 mmHg 49%
17:00 +20°C° 0 mm 5 m/s 647 mmHg 45%
18:00 +20°C° 0 mm 5 m/s 647 mmHg 42%
19:00 +19°C° 0 mm 5 m/s 647 mmHg 48%
20:00 +17°C° 0 mm 4 m/s 647 mmHg 55%
21:00 +14°C° 0 mm 3 m/s 647 mmHg 62%
22:00 +14°C° 0.1 mm 3 m/s 647 mmHg 65%
23:00 +13°C° 0.1 mm 3 m/s 647 mmHg 69%

18 Iunie, Vineri

Timp Temperatura Precipitaţii Vânt Presiune Umiditate
00:00 +13°C° 0.1 mm 3 m/s 647 mmHg 72%
01:00 +13°C° 0 mm 3 m/s 647 mmHg 71%
02:00 +14°C° 0 mm 2 m/s 647 mmHg 71%
03:00 +14°C° 0 mm 1 m/s 647 mmHg 70%
04:00 +15°C° 0 mm 1 m/s 647 mmHg 68%
05:00 +15°C° 0 mm 1 m/s 647 mmHg 65%
06:00 +16°C° 0 mm 1 m/s 647 mmHg 63%
07:00 +18°C° 0 mm 1 m/s 648 mmHg 57%
08:00 +18°C° 0 mm 2 m/s 648 mmHg 52%
09:00 +20°C° 0 mm 3 m/s 648 mmHg 46%
10:00 +21°C° 0 mm 4 m/s 649 mmHg 43%
11:00 +21°C° 0 mm 5 m/s 649 mmHg 40%
12:00 +22°C° 0 mm 6 m/s 649 mmHg 37%
13:00 +21°C° 0.1 mm 7 m/s 648 mmHg 43%
14:00 +21°C° 0.1 mm 7 m/s 648 mmHg 48%
15:00 +20°C° 0.1 mm 7 m/s 648 mmHg 54%
16:00 +17°C° 0.6 mm 7 m/s 647 mmHg 62%
17:00 +16°C° 0.6 mm 6 m/s 647 mmHg 70%
18:00 +15°C° 0.6 mm 5 m/s 647 mmHg 78%
19:00 +14°C° 0.1 mm 5 m/s 647 mmHg 82%
20:00 +14°C° 0.1 mm 5 m/s 647 mmHg 85%
21:00 +14°C° 0.1 mm 5 m/s 647 mmHg 88%
22:00 +14°C° 0.1 mm 5 m/s 647 mmHg 90%
23:00 +14°C° 0.1 mm 4 m/s 647 mmHg 91%
Arată mai mult

Formular de consimțământ

Meteoprog și furnizorii noștri de servicii pot stoca și accesa date personale, precum cookies, identificatori de dispozitiv sau alte tehnologii similare pe dispozitivul dumneavoastră și procesa astfel de date pentru a personaliza conținutul și reclamele, dar și pentru a oferi caracteristici de social media și pentru a analiza traficul.

  • Stocarea și/sau accesarea informațiilor pe dispozitivul dumneavoastră

    Cookies, identificatori de dispozitiv sau alte informații pot fi stocate sau accesate pe dispozitiv în scopurile indicate mai sus.

  • Reclame și conținut personalizat, evaluarea reclamelor și a conținutului, informații despre audiențe și dezvoltarea produselor

    Reclamele și conținutul pot fi personalizate pe baza unui profil. Pot fi adăugate date suplimentare pentru a personaliza mai bine reclamele și conținutul. Performanța reclamelor și conținutului poate fi măsurată. Pot fi obținute informații despre utilizatorii care au văzut reclamele și conținutul. Aceste date pot fi utilizate pentru a dezvolta sau îmbunătăți experiența utilizatorilor, sistemele și software-ul.

Dând clic pe ‘Sunt de acord’, permiteți utilizarea cookie-urilor menționate, a identificatorilor de dispozitiv, balizelor web sau altor tehnologii similare. Setările pot fi modificate din browser-ul dispozitivului dumneavoastră.

În anumite scopuri, interesele legitime pot prima asupra consimțământului. Puteți citi mai multe informații în acest sens în Politica privind Confidențialitatea Datelor și Cookie.